Regional Weather Roundup
Issued by NWS Midland/Odessa, TX

Home | Current Version | Previous Version | Text Only | Print | Product List | Glossary On
Versions: 1 2 3 4 5 6 7 8 9 10 11 12 13 14 15 16 17 18 19 20 21 22 23 24 25 26 27 28 29 30 31 32 33 34 35 36 37 38 39 40 41 42 43 44 45 46 47 48 49 50
000
ASUS44 KMAF 211110
RWRMAF
MIDLAND AREA WEATHER ROUNDUP
NATIONAL WEATHER SERVICE MIDLAND TX
600 AM CDT MON MAY 21 2018

...IN SOUTHWEST TEXAS AND SOUTHEAST NEW MEXICO...

CITY           SKY/WX    TMP DP  RH WIND       PRES   REMARKS
ALPINE         CLEAR     57  54  90 CALM      30.13R
ANDREWS        FAIR      58  58 100 E7        30.08R
ARTESIA        CLOUDY    63  63 100 E6        30.08R
BIG SPRING     CLEAR     60  59  95 NE6       30.08R
CARLSBAD       PTCLDY    61  57  87 SE5       30.05R
DRYDEN           N/A     68  60  75 N5        29.98R
FORT STOCKTON  CLEAR     63  57  81 E7        30.03R
GUAD PASS      MOCLDY    57  55  93 NE29      30.10S
HOBBS          CLOUDY    59  55  88 E8        30.09R
LAMESA         FAIR      59  57  94 E8        30.09R
MARFA          CLEAR     53  51  93 N8        30.10R
MIDLAND AIRPK    N/A     63  59  88 E7        30.06F
MIDLAND INTL   PTCLDY    63  60  90 E9        30.05S
ODESSA           N/A     62  60  93 E8        30.06R
PECOS          CLOUDY    68  58  69 E10       30.02S
PRESIDIO       FAIR      70  61  72 NE13G20   29.99R
SEMINOLE       CLEAR     56  56  98 E6        30.10R
SNYDER         PTCLDY    62  60  96 E7        30.08R
WINK           CLOUDY    65  59  81 E9        30.03R
$$
...OTHER STATIONS IN TEXAS...

CITY           SKY/WX    TMP DP  RH WIND       PRES   REMARKS
ABILENE        CLOUDY    65  64  97 NE5       30.04R
AMARILLO       CLEAR     52  50  93 SE5       30.11F
AUSTIN         LGT RAIN  70  67  90 NE7       29.99R
BROWNSVILLE    LGT RAIN  70  68  93 SW15G26   29.97S
CORPUS CHRISTI CLOUDY    69  68  96 W5        29.92F
DALLAS FTW     CLOUDY    67  64  90 S3        30.00R
DEL RIO        CLOUDY    67  65  93 E3        29.93R
EL PASO        CLEAR     67  55  65 E6        29.98R
HOUSTON INT    MOCLDY    70  69  97 NE3       29.98R
LUBBOCK        PTCLDY    57  56  96 E6        30.09R
SAN ANGELO     CLOUDY    64  63  96 NE6       30.03R FOG
SAN ANTONIO    CLOUDY    68  66  93 N5        29.97F
WACO           CLEAR     65  64  97 E5        30.00S
WICHITA FALLS  MOCLDY    59  56  89 N6        30.08S
$$
...OTHER LOCATIONS IN NEW MEXICO...

CITY           SKY/WX    TMP DP  RH WIND       PRES   REMARKS
ALAMOGORDO     CLEAR     64  46  52 N6        30.01S
ALBUQUERQUE    PTCLDY    63  48  59 E17       30.07S
CANNON AFB     MOCLDY    54  54 100 NE6       30.13R
CLOVIS         MOCLDY    54  53  97 NE5       30.13R FOG
HOLLOMAN AFB   CLEAR     63  48  58 NE8       30.02S
ROSWELL        CLOUDY    65  58  78 SE12      30.07R
RUIDOSO        CLEAR     50  48  93 SE9       30.19R
SANTA FE       PTCLDY    56  48  74 SE13      30.14R
TRUTH OR CONSE MOCLDY    69  50  50 CALM      30.02R
TUCUMCARI      PTCLDY    56  52  86 CALM      30.09F
$$



USA.gov is the U.S. government's official web portal to all federal, state and local government web resources and services.